Regional Weather Roundup
Issued by NWS

Home | Current Version | Previous Version | Graphics & Text | Print | Product List | Glossary On
Versions: 1 2 3 4 5 6 7 8 9 10 11 12 13 14 15 16 17 18 19 20 21 22 23 24 25 26 27 28 29 30 31 32 33 34 35 36 37 38 39 40 41 42 43 44 45 46 47 48 49 50
000
ASUS43 KIND 302109
RWRIN

WEATHER ROUNDUP FOR INDIANA
NATIONAL WEATHER SERVICE INDIANAPOLIS IN
500 PM EDT MON MAR 30 2015

NOTE: "FAIR" INDICATES FEW OR NO CLOUDS BELOW 12,000 FEET WITH NO
SIGNIFICANT WEATHER AND/OR OBSTRUCTIONS TO VISIBILITY.

* - STATION DOES NOT REPORT WEATHER SUCH AS PRECIPITATION OR FOG.

+ - STATION NOT QUALITY CONTROLLED BY THE NATIONAL WEATHER SERVICE.
    USE DATA WITH CAUTION...ESPECIALLY DEWPOINT AND RELATIVE
    HUMIDITY OBSERVATIONS.

INZ001>003-010>013-019-020-302200-
NORTHWEST INDIANA

CITY           SKY/WX    TMP DP  RH WIND       PRES   REMARKS
GARY /AIRPORT/ CLOUDY    63  18  17 W17G29    29.97F
KNOX *+          N/A     61  -9   5 W17G25    29.98F
LA PORTE +     CLOUDY    60  29  30 W14G23    29.98F
MICHIGAN CITY+ CLOUDY    59  21  23 W12G20    29.98F
MONTICELLO +   MOSUNNY   59  33  37 W15       30.00F
RENSSELAER +   PTSUNNY   63  32  31 W16       29.99F
VALPARAISO     PTSUNNY   59  29  31 W17       29.98F

$$

LMZ046-743>745-302200-
SOUTHERN LAKE MICHIGAN

STATION/POSITION TIME  TEMP WIND        PRES
                       AIR  DIR/SP/G
                 (UTC) (F)  (DEG/KT/KT) (MB)
BURNS HARBOR     2100   50  260/  4/  7 1015.6S
MICHIGAN CITY    2100   52  210/  4/  4   N/A

$$

INZ004-005-014>016-021>024-302200-
NORTH CENTRAL INDIANA

CITY           SKY/WX    TMP DP  RH WIND       PRES   REMARKS
ELKHART        PTSUNNY   57  19  23 W14G23    29.98F
GOSHEN         PTSUNNY   57  27  31 NW17      29.97F
LOGANSPORT +   PTSUNNY   57  32  38 W13G24    30.02F
ROCHESTER +    CLOUDY    61  30  31 W13G20    30.00F
SOUTH BEND     CLOUDY    59  25  27 W20       29.99F
WARSAW +       PTSUNNY   55  28  35 W13G22    29.99S

$$

INZ006>009-017-018-025>027-302200-
NORTHEAST INDIANA

CITY           SKY/WX    TMP DP  RH WIND       PRES   REMARKS
ANGOLA *+      MOSUNNY   55  27  33 W17       29.96S
AUBURN +       MOSUNNY   55  25  30 W21G26    29.98S
FORT WAYNE     PTSUNNY   57  27  31 W20G26    29.99F
HUNTINGTON +   PTSUNNY   56  23  27 W10G21    30.00S

$$

INZ028-029-035-036-043>045-051>053-302200-
WEST CENTRAL INDIANA

CITY           SKY/WX    TMP DP  RH WIND       PRES   REMARKS
CRAWFORDSVL +  PTSUNNY   59  24  25 W13G22    30.05S
GREENCASTLE +  MOSUNNY   59  27  29 W6G18     30.06F
LAFAYETTE      PTSUNNY   59  30  33 W14G23    30.02F
TERRE HAUTE    SUNNY     63  33  32 NW16      30.07F

$$

INZ030>032-037>040-046>048-054>057-064-065-302200-
CENTRAL INDIANA

CITY           SKY/WX    TMP DP  RH WIND       PRES   REMARKS
CP ATTERBURY + MOSUNNY   61  30  31 NW9G18    30.07F
COLUMBUS       PTSUNNY   59  23  25 W9        30.06F
FRANKFORT +    PTSUNNY   59  35  40 SW16G24   30.05F
GREENWOOD *+   MOSUNNY   59  27  29 W8G20     30.06F
INDIANAPOLIS   PTSUNNY   60  29  30 W15       30.04F
-EAGLE CREEK   MOSUNNY   57  31  37 W13G20    30.04F
KOKOMO *+        N/A     57  36  44 W17       30.02S
MARION +       MOSUNNY   57  31  37 NW18G28   30.02F
MT COMFORT *+  MOSUNNY   59  14  17 NW16      30.05F
SHELBYVILLE    MOSUNNY   60  31  33 NW13G23   30.05F
ZIONSVILLE +   MOSUNNY   58  29  33 NW13G23   30.05F

$$

INZ033-034-041-042-049-050-058-059-302200-
EAST CENTRAL INDIANA

CITY           SKY/WX    TMP DP  RH WIND       PRES   REMARKS
MUNCIE         MOSUNNY   57  33  40 W15G28    30.02F

$$

INZ060-061-067>069-081>083-085>088-302200-
SOUTHWEST INDIANA

CITY           SKY/WX    TMP DP  RH WIND       PRES   REMARKS
EVANSVILLE     SUNNY     65  28  24 CALM      30.12F
HUNTINGBURG *+ SUNNY     63  30  29 W5        30.11F
WASHINGTON +   SUNNY     63  26  25 W10G20    30.10F

$$

INZ062-063-066-070>080-084-089>092-302200-
SOUTH CENTRAL AND SOUTHEAST INDIANA

CITY           SKY/WX    TMP DP  RH WIND       PRES   REMARKS
BEDFORD +      SUNNY     63  23  22 W8G18     30.09F
BLOOMINGTON    MOSUNNY   60  29  30 SW16G23   30.08F
NORTH VERNON + MOSUNNY   61  28  29 NW10      30.08S
SEYMOUR +      MOSUNNY   64  34  32 W9G16     30.07S

$$



USA.gov is the U.S. government's official web portal to all federal, state and local government web resources and services.